Regional Weather Roundup
Issued by NWS Green Bay, WI

Home | Current Version | Previous Version | Graphics & Text | Print | Product List | Glossary Off
Versions: 1 2 3 4 5 6 7 8 9 10 11 12 13 14 15 16 17 18 19 20 21 22 23 24 25 26 27 28 29 30 31 32 33 34 35 36 37 38 39 40 41 42 43 44 45 46 47 48 49 50

000
ASUS43 KGRB 302111
RWRGRB

NORTH-CENTRAL AND NORTHEAST WISCONSIN REGIONAL WEATHER ROUNDUP
NATIONAL WEATHER SERVICE GREEN BAY WI
400 PM CDT SUN AUG 30 2015

WIZ005-009-010>012-018-019-302200-
NORTH CENTRAL WISCONSIN

CITY           SKY/WX    TMP DP  RH WIND       PRES   REMARKS
IRONWOOD       MOSUNNY   82  63  51 SW13      29.88S
MANITOWISH WTR MOSUNNY   78  65  63 SW8       29.96F
ARBOR VITAE    SUNNY     79  66  65 S10       29.98S
EAGLE RIVER    SUNNY     76  61  57 SW10      29.98S
LAND O LAKES   MOSUNNY   78  62  56 SW10      29.98S
RHINELANDER    SUNNY     77  62  59 SW8       30.00
PHILLIPS       SUNNY     77  65  65 SW9G17    29.97F
ANTIGO         MOSUNNY   77  62  59 SW9       30.01F
TOMAHAWK       MOSUNNY   76  64  64 CALM      30.00F
MERRILL        MOSUNNY   77  65  66 SW9       30.00F
$$

WIZ013-073-302200-
NORTHEAST WISCONSIN

CITY           SKY/WX    TMP DP  RH WIND       PRES   REMARKS
IRON MOUNTAIN  MOSUNNY   81  61  50 SW10G17   29.95F
MARINETTE      SUNNY     75  63  64 SW10      29.97F
OCONTO         SUNNY     74  64  70 SW10      29.99S
$$

WIZ017-030-035>037-045-302200-
CENTRAL WISCONSIN

CITY           SKY/WX    TMP DP  RH WIND       PRES   REMARKS
MEDFORD        SUNNY     73  64  73 S10       30.01S
WAUSAU         MOSUNNY   77  63  61 S9        29.99F
MOSINEE        SUNNY     75  64  69 SW9       30.02F
MARSHFIELD     SUNNY     77  62  59 S8        30.01F
WISC RAPIDS    SUNNY     76  62  62 S9        30.02F
STEVENS POINT  SUNNY     74  62  64 SW9       30.01F
WAUPACA        SUNNY     77  64  63 S7        30.01F
SHAWANO        SUNNY     77  64  64 SW5       30.00F
CLINTONVILLE   SUNNY     73  61  64 SW8       30.01S
WAUTOMA        SUNNY     76  65  68 SW7       30.02F
$$

WIZ038-039-048-051-302200-
FOX VALLEY

CITY           SKY/WX    TMP DP  RH WIND       PRES   REMARKS
NWS GREEN BAY  MOSUNNY   74  65  73 S9        30.01S
APPLETON       MOSUNNY   72  61  68 SW8       30.01F
OSHKOSH        SUNNY     73  63  70 S7        30.02F
FOND DU LAC    MOSUNNY   73  63  70 SW8       30.03F
$$

WIZ022-050-052-302200-
EAST CENTRAL WISCONSIN

CITY           SKY/WX    TMP DP  RH WIND       PRES   REMARKS
EPHRAIM        FAIR      72  63  72 W8        29.98F
STURGEON BAY   SUNNY     73  63  68 SW8       30.02F
MANITOWOC      MOSUNNY   70  63  78 MISG      30.02F
SHEBOYGAN      MOSUNNY   73  64  73 SW7       30.02F
$$

LMZ563-521-522-541>543-302200-
LAKESHORE

STATION/POSITION TIME  TEMP    WIND        PRES    VSBY  WAVE
                       AIR SEA DIR/SP/G                  HT/PER
                 (UTC) (F)     (DEG/KT/KT) (MB)    (MI)  (FT/S)
SHEBOYGAN LKSHOR 2100   63     170/ 12/ 12 1017.0F
NORTHPORT PIER   2000   69     160/  7/ 13 1015.6F
N MID LAKE BUOY  2050   64 65  200/ 16/ 17 1015.1F         2/ 3
S GREEN BAY BUOY 2100   68 64  200/ 10/ 12 1017.0
CHAMBERS ISLAND  2000   70     180/  9/ 16 1015.2F
$$



USA.gov is the U.S. government's official web portal to all federal, state and local government web resources and services.